Location: Platte
(43.3870°N, 98.8440°W)
Time: 11:32:09
(UTC-06:00)

Daily predictions for brighter satellites

Satellite Brightness Start Highest point End
(mag) Time Altitude Azimuth Time Altitude Azimuth Time Altitude Azimuth
Cosmos 1340 4.1 18:37:17 10° NNE 18:39:59 18° ENE 18:42:39 10° ESE
Resurs 01 Rocket 3.1 18:38:07 10° ESE 18:41:05 18° ENE 18:44:04 10° NNE
Cosmos 407 Rocket 4.0 18:36:28 10° S 18:41:18 39° ESE 18:46:14 10° NE
Cosmos 1238 Rocket 4.1 18:40:27 10° NE 18:41:30 11° ENE 18:42:32 10° E
Meteor 1-14 Rocket 4.4 18:36:12 10° S 18:42:09 78° E 18:48:10 10° NNE
DELTA 2 R/B (1) 4.0 18:36:43 10° W 18:42:15 60° S 18:47:46 10° ESE
Cosmos 1782 Rocket 3.7 18:39:11 10° S 18:43:37 84° W 18:48:07 10° N
Meteor 1-20 Rocket 4.5 18:39:28 10° SSE 18:45:04 51° E 18:50:43 10° NNE
Cosmos 2322 Rocket 2.2 18:42:45 10° NNW 18:48:23 72° ENE 18:53:59 10° SSE
Meteor 1-28 Rocket 3.2 18:45:49 10° NNE 18:49:37 70° E 18:53:25 10° S
Tiangong 2 1.6 18:48:05 10° W 18:51:06 54° SSW 18:54:06 10° ESE
Cosmos 44 Rocket 4.3 18:47:50 10° NW 18:52:26 49° WSW 18:56:55 10° SSE
COSMO-SKYMED 1 2.7 18:51:40 10° N 18:56:02 80° WNW 19:00:21 10° SSW
Thor Agena Rocket 4.4 18:52:48 10° N 18:57:44 53° WNW 19:02:36 10° SW
Cosmos 2322 4.4 18:55:43 10° N 19:00:55 34° NE 19:06:04 10° ESE
Okean 2 Rocket 3.4 18:57:54 10° SSW 19:02:20 72° W 19:06:47 10° N
Okean 1 3.4 18:59:37 10° N 19:03:38 57° E 19:07:38 10° SSE
Cosmos 1140 Rocket 4.3 19:02:14 10° SSE 19:06:32 28° E 19:10:51 10° NE
Cosmos 1461 2.7 19:02:33 10° NNW 19:06:35 83° ENE 19:10:41 10° SE
Cosmos 1190 Rocket 3.9 19:01:41 10° SSW 19:06:52 78° ESE 19:12:05 10° NNE
FENGYUN 3A 4.0 19:01:49 10° SE 19:06:55 44° ENE 19:12:01 10° N
deb Kosmos-1763 4.1 19:04:12 10° SSW 19:07:59 85° ESE 19:11:49 10° NNE
Cosmos 1709 Rocket 4.1 19:02:05 10° SSE 19:08:03 50° E 19:13:59 10° NNE
Cosmos 44 4.1 19:07:59 10° NW 19:12:14 46° WSW 19:16:21 10° S
COSMOS 2428 3.8 19:09:08 10° N 19:13:45 25° NE 19:16:58 16° E
H-2A R/B 3.6 19:11:29 10° SE 19:14:40 27° ENE 19:17:52 10° N
Meteor 2-4 Rocket 4.4 19:10:20 10° N 19:15:16 31° ENE 19:20:03 10° SE
Cosmos 2292 Rocket 4.2 19:11:09 10° S 19:16:03 65° E 19:22:45 10° NNE
Spot 2 Rocket 3.9 19:12:16 10° SE 19:16:59 41° ENE 19:21:44 10° N
Meteor 1-25 Rocket 4.4 19:12:07 10° SSW 19:17:43 77° W 19:23:26 10° N
Cosmos 1812 3.5 19:16:44 10° NNW 19:20:31 54° W 19:24:17 10° S
CENTAUR R/B 4.5 19:13:18 10° NW 19:20:37 42° WSW 19:28:16 10° S
Cosmos 2151 Rocket 3.6 19:16:30 10° S 19:21:00 85° E 19:25:33 10° N
Cosmos 2237 Rocket 4.1 19:20:31 10° NNE 19:22:42 12° NE 19:23:53 11° NE
Helios 1A 4.0 19:21:29 18° ESE 19:23:16 24° ENE 19:26:39 10° NNE
Okean 1 Rocket 3.6 19:23:32 10° SSE 19:27:38 37° E 19:31:45 10° NNE
HJ-1C 3.3 19:27:44 10° SSE 19:31:05 69° ENE 19:34:27 10° N
Meteor 1-11 Rocket 3.9 19:26:38 10° S 19:32:12 53° E 19:37:56 10° NNE
Envisat 4.2 19:33:04 20° ENE 19:33:27 21° ENE 19:37:08 10° NNE
GEOS 3 Rocket 3.6 19:29:00 10° NE 19:34:13 67° SE 19:39:29 10° SSW
Cosmos 1954 Rocket 3.9 19:29:29 10° S 19:34:36 66° ESE 19:39:48 10° NNE
Cosmos 2219 4.0 19:34:03 10° SSE 19:38:54 29° ESE 19:41:02 22° ENE
Cosmos 2360 Rocket 2.1 19:34:54 10° NNW 19:40:34 74° ENE 19:46:14 10° SSE
Helios 1B rocket 3.7 19:44:11 23° SE 19:44:11 23° SE 19:46:17 10° SSE
Cosmos 2219 Rocket 3.3 19:38:53 10° N 19:43:21 24° NE 19:44:09 23° ENE
Okean 1-7 Rocket 3.8 19:40:41 10° N 19:45:06 47° ENE 19:48:12 18° SE
Cosmos 1633 2.5 19:43:22 10° S 19:47:03 86° W 19:50:46 10° N
Cosmos 1602 3.6 19:43:40 10° S 19:47:32 87° E 19:51:28 10° N
Cosmos 1025 Rocket 3.3 19:50:50 10° N 19:55:02 44° ENE 19:55:30 42° E
ALOS 2.8 19:54:04 10° S 19:58:40 60° W 20:03:18 10° NNW
Spot 1 3.8 19:59:37 41° SE 20:00:50 64° ENE 20:04:55 10° N
Cosmos 1833 4.3 19:58:39 10° SSW 20:04:21 80° WNW 20:10:03 10° NNE
ATLAS 2A CENTAUR R/B 4.4 20:05:39 10° S 20:06:37 10° SSE 20:07:24 10° SSE
Cosmos 2333 Rocket 3.1 20:04:12 10° N 20:09:02 30° NE 20:09:02 30° NE
Cosmos 1818 4.3 20:05:19 10° SW 20:10:37 53° NW 20:15:58 10° NNE
BREEZE-M DEB (TANK) 2.4 20:08:24 10° WNW 20:11:04 76° SSW 20:12:05 50° SE
SL-16 R/B 4.5 20:09:41 10° NW 20:14:08 24° WSW 20:18:34 10° SSW
Cosmos 1741 Rocket 3.8 20:09:50 10° S 20:15:02 70° ESE 20:18:33 21° NNE
Resurs 01 Rocket 2.6 20:12:57 10° S 20:17:13 48° W 20:21:29 10° NNW
SL-08 ROCKET BODY 4.3 20:12:56 10° S 20:19:06 86° E 20:25:20 10° N
NOSS 0 Rocket 4.4 20:13:29 10° NNW 20:19:12 38° NE 20:19:14 38° NE
Cosmos 1610 Rocket 4.4 20:20:16 10° S 20:26:23 61° E 20:32:27 10° NNE
Tiangong 2 3.8 20:25:13 10° WSW 20:26:33 15° SW 20:26:33 15° SW
Cosmos 1570 Rocket 4.0 20:22:06 10° NNW 20:27:21 78° WSW 20:29:15 40° S
Gbstr 26 Del rocket 3.8 20:24:11 10° SW 20:26:34 36° SW 20:26:34 36° SW
DELTA 2 R/B (1) 4.4 20:23:06 10° W 20:28:18 39° SSW 20:29:26 35° S
Intercosmos 24 4.3 20:24:28 10° S 20:28:33 86° W 20:34:24 10° N
Meteor 2-9 4.5 20:25:11 10° S 20:30:40 76° E 20:36:19 10° NNE
Meteor 1-5 Rocket 4.2 20:26:07 10° S 20:32:05 85° ESE 20:38:04 10° NNE
Genesis I 4.0 20:28:59 10° NW 20:31:56 48° NW 20:31:56 48° NW
Cosmos 2327 Rocket 4.4 20:26:58 10° S 20:33:11 88° WNW 20:39:32 10° N
Cosmos 1536 3.8 20:31:30 10° SSW 20:35:21 45° WNW 20:39:12 10° N
Cosmos 2074 Rocket 4.5 20:46:19 10° SSW 20:52:27 60° W 20:58:41 10° N
Cosmos 2184 Rocket 4.4 20:47:00 10° SSW 20:53:14 61° W 20:59:28 10° N
COSMOS 2428 3.1 20:52:50 10° NNW 20:58:25 58° WSW 20:59:03 54° SW
Cosmos 2237 Rocket 3.3 21:02:22 10° NNW 21:05:44 35° N 21:05:44 35° N
Envisat 4.0 21:13:16 43° NW 21:13:16 43° NW 21:17:04 10° NNW
Nadezhda 3 Rocket 4.2 21:06:53 10° N 21:12:03 63° NNW 21:12:03 63° NNW
USA 229 DEB 3.9 21:12:32 10° NW 21:19:37 68° WSW 21:19:44 68° SW
USA 229 3.9 21:12:39 10° NW 21:19:44 68° WSW 21:19:48 68° SW
Cosmos 2219 4.2 21:17:19 10° SW 21:22:48 45° WNW 21:23:09 45° NW
Cosmos 2219 Rocket 3.3 21:22:12 10° NNW 21:25:54 40° NW 21:25:54 40° NW
USA 215 4.5 21:29:06 30° N 21:29:06 30° N 21:34:20 10° NW
NOSS 3-1 (A) 4.4 21:25:01 10° NNW 21:30:52 52° N 21:30:52 52° N
ATLAS 2AS CENTAUR R/B 4.3 21:31:02 10° NNW 21:36:51 28° NNE 21:36:51 28° NNE
SL-16 R/B 4.3 21:34:31 10° NNW 21:36:07 19° N 21:36:07 19° N
NOSS 3-1 (C) 4.5 21:45:36 10° NW 21:51:11 56° NW 21:51:11 56° NW
Cosmos 2333 Rocket 4.0 21:48:12 10° NW 21:51:05 28° NW 21:51:05 28° NW
